Weather observations for the past three days for
Spokane, Felts Field
Imperial (Metric)
Date Time (pdt) Wind (mph) Vis. (mi.) Weather Sky Cond. Temperature (ºF) Relative Humidity Wind Chill (°F) Heat Index (°F) Pressure Precipitation (in)
Air Dwpt 6 hour altimeter (in) sea level (mb) 1 hr 3 hr 6 hr
Max. Min.
23 08:53 S 13 10.00 Fair CLR 68 45 44% 30.1 1017.5
23 07:53 S 10 10.00 Fair CLR 64.9 46.9 52% 30.11 1017.6
23 06:53 S 12 10.00 Fair CLR 63 46 54% 30.1 1017.1
23 05:53 SW 6 10.00 Fair CLR 63 46 54% 30.07 1016.2
23 04:53 S 8 10.00 Fair CLR 64.9 46.9 82.9 64 52% 30.06 1015.7
23 03:53 S 12 10.00 Fair CLR 66.9 48 51% 30.02 1014.6
23 02:53 SW 9 9.00 Fair CLR 69.1 51.1 53% 30 1013.9
23 01:53 SW 8 8.00 Fair CLR 72 52 50% 29.99 1013.4
23 00:53 SW 8 10.00 Fair CLR 77 52 42% 78 29.94 1011.8
22 23:53 S 8 10.00 Fair CLR 81 53.1 38% 80 29.93 1011.2
22 22:53 SW 9 9.00 Fair CLR 82 52 100.9 82 35% 81 29.91 1010.7
22 21:53 SW 12 G 21 6.00 Fair with Haze CLR 86 53.1 32% 84 29.88 1009.8
22 20:53 SW 15 G 21 9.00 Fair CLR 91 53.1 27% 89 29.84 1008.2
22 19:53 SW 14 G 18 9.00 Fair CLR 95 51.1 23% 92 29.82 1007.4
22 18:53 W 14 8.00 Fair CLR 98.1 52 21% 95 29.81 1007.2
22 17:53 S 12 10.00 Fair CLR 100 50 18% 97 29.82 1007.4
22 16:53 Vrbl 6 9.00 Fair CLR 100 51.1 100.9 82.9 19% 97 29.84 1008.1
22 15:53 Vrbl 5 9.00 Fair CLR 98.1 50 20% 95 29.86 1008.8
22 14:53 Vrbl 5 10.00 Fair CLR 97 52 22% 94 29.88 1009.5
22 13:53 Vrbl 5 10.00 Fair CLR 93.9 53.1 25% 91 29.91 1010.5
22 12:53 Vrbl 3 10.00 Fair CLR 91.9 53.1 27% 89 29.93 1011.1
22 11:53 Calm 10.00 Fair CLR 88 53.1 30% 86 29.94 1011.7
22 10:53 Calm 8.00 Fair CLR 82.9 53.1 82.9 70 36% 82 29.95 1012.3
22 09:53 Calm 10.00 A Few Clouds FEW080 FEW100 79 54 42% 79 29.95 1012.3
22 08:53 Calm 9.00 Partly Cloudy FEW070 SCT110 78.1 55.9 47% 79 29.97 1012.6
22 07:53 Calm 9.00 Fair CLR 77 55.9 48% 79 29.96 1012.2
22 06:53 Calm 9.00 Fair CLR 75 55 50% 78 29.94 1011.4
22 05:53 Calm 9.00 Fair CLR 72 53.1 52% 29.93 1011.2
22 04:53 Vrbl 3 10.00 Fair CLR 70 52 80.1 70 53% 29.92 1010.8
22 03:53 NE 3 10.00 Fair CLR 73 51.1 46% 29.91 1010.4
22 02:53 Calm 10.00 Fair CLR 77 52 42% 78 29.91 1010.4
22 01:53 Calm 10.00 Fair CLR 75.9 53.1 45% 78 29.92 1010.7
22 00:53 Calm 10.00 Fair CLR 77 51.1 40% 78 29.9 1010.1
21 23:53 NE 3 10.00 Fair CLR 75.9 53.1 45% 78 29.91 1010.2
21 22:53 Calm 10.00 Fair CLR 80.1 54 107.1 80.1 41% 80 29.91 1010.3
21 21:53 Calm 10.00 Fair CLR 84.9 50 30% 83 29.91 1010.4
21 20:53 SE 6 10.00 Fair CLR 93.9 50 22% 91 29.9 1010.0
21 19:53 N 3 10.00 Fair CLR 96.1 50 21% 93 29.89 1009.9
21 18:53 NE 7 10.00 Fair CLR 102.9 48 16% 99 29.89 1009.9
21 17:53 Calm 10.00 Fair CLR 104 48 15% 100 29.9 1010.0
21 16:53 E 5 10.00 Fair CLR 105.1 46.9 107.1 95 14% 101 29.9 1010.3
21 15:53 NE 8 10.00 Fair CLR 106 48 14% 102 29.92 1010.9
21 14:53 NE 12 G 21 10.00 Fair CLR 104 50 16% 101 29.94 1011.5
21 13:53 NE 5 G 16 10.00 Fair CLR 104 48 15% 100 29.95 1012.0
21 12:53 NE 9 G 20 10.00 Fair CLR 102 48.9 17% 99 29.97 1012.6
21 11:53 E 13 10.00 Fair CLR 100 48 17% 97 29.99 1013.1
21 10:53 NW 3 10.00 Fair CLR 95 53.1 95 64.9 24% 93 30.01 1013.9
21 09:53 Calm 10.00 Fair CLR 88 53.1 30% 86 30.02 1014.3
21 08:53 Vrbl 3 10.00 Fair CLR 84 52 33% 82 30.03 1014.8
21 07:53 Calm 9.00 Fair CLR 77 55 47% 78 30.04 1015.0
21 06:53 Calm 9.00 Fair CLR 70 54 57% 30.04 1015.1
21 05:53 Calm 10.00 Fair CLR 66.9 53.1 61% 30.04 1015.1
21 04:53 Calm 10.00 Fair CLR 66 53.1 77 66 63% 30.03 1014.9
21 03:53 Calm 10.00 Fair CLR 66.9 52 59% 30.02 1014.5
21 02:53 Calm 10.00 Fair CLR 69.1 52 55% 30.02 1014.4
21 01:53 Calm 10.00 Fair CLR 70 51.1 51% 30.03 1014.7
21 00:53 N 3 10.00 Fair CLR 72 51.1 48% 30.03 1014.7
20 23:53 Calm 10.00 Fair CLR 75 48.9 40% 77 30.03 1014.9
20 22:53 NE 3 10.00 Fair CLR 77 48.9 100.9 77 37% 78 30.03 1014.9
20 21:53 SE 5 10.00 Fair CLR 88 48 25% 85 30.03 1014.7
20 20:53 N 6 10.00 Fair CLR 88 46.9 24% 85 30.03 1014.9
20 19:53 N 5 10.00 Fair CLR 93 46.9 21% 89 30.03 1014.9
20 18:53 N 3 10.00 Fair CLR 98.1 46 17% 94 30.03 1015.0
20 17:53 Calm 10.00 Fair CLR 100.9 45 15% 97 30.04 1015.3
20 16:53 Calm 10.00 Fair CLR 99 46 100 84.9 16% 95 30.06 1015.9
20 15:53 Calm 10.00 Fair CLR 99 46 16% 95 30.08 1016.6
20 14:53 S 7 10.00 Fair CLR 98.1 44.1 16% 94 30.1 1017.1
20 13:53 Calm 10.00 Fair CLR 98.1 44.1 16% 94 30.11 1017.8
20 12:53 Calm 10.00 Fair CLR 93 48 21% 90 30.14 1018.6
20 11:53 Vrbl 5 10.00 Fair CLR 90 48 24% 87 30.15 1019.1
20 10:53 Vrbl 3 10.00 Fair CLR 84.9 48 86 61 28% 83 30.17 1019.7
20 09:53 Calm 10.00 Fair CLR 81 54 39% 81 30.17 1019.8
Date Time (pdt) Wind (mph) Vis. (mi.) Weather Sky Cond. Air Dwpt Max. Min. Relative Humidity Wind Chill (°F) Heat Index (°F) altimeter (in) sea level (mb) 1 hr 3 hr 6 hr
6 hour
Temperature (ºF) Pressure Precipitation (in)